Temp_Advection
nan nan nan nan nan nan nan nan nan nan nan nan nan nan nan nan nan nan nan nan nan nan nan nan nan nan nan nan nan nan nan nan nan nan nan nan nan nan nan nan nan nan nan nan
nan -1 -1 -0 0 1 0 -0 -0 -0 0 0 -0 -1 -1 -0 -0 0 1 1 0 -0 -0 0 0 0 -0 -0 1 3 1 -1 -0 -0 -0 0 2 1 1 1 1 1 0 nan
nan -0 0 0 0 0 0 -0 -0 -0 -0 0 -1 -1 -0 0 0 1 0 0 0 -0 -1 -0 0 1 1 1 2 1 -2 -1 2 2 1 1 -0 -0 -0 1 0 0 0 nan
nan -0 0 0 -0 -0 -0 -0 0 0 -0 -0 0 -1 -1 -0 0 -0 -0 0 -0 -0 -1 -1 0 1 2 2 0 0 1 2 2 1 1 -0 1 1 1 1 0 0 1 nan
nan 0 0 -1 -0 -0 -0 0 0 0 0 -0 -0 -1 -0 0 -0 0 1 -0 -0 -0 -1 -1 -0 1 1 1 0 1 1 1 1 2 2 2 3 1 2 2 2 1 2 nan
nan -0 -0 -0 0 0 0 0 -0 0 0 -0 -1 -1 -1 0 1 0 -0 -0 -0 -0 0 -0 -0 0 0 0 0 1 1 1 2 2 2 2 2 3 3 3 2 2 1 nan
nan -1 -0 0 0 0 0 0 0 0 0 -1 -0 -0 -1 -0 -1 -0 -0 -0 -0 0 0 0 0 0 0 0 0 0 1 1 1 1 1 1 0 0 -0 -0 -0 0 -0 nan
nan -0 0 -0 -0 -0 0 0 -0 -0 -0 0 -0 -1 0 -0 -0 -0 -0 -0 -0 0 0 0 0 0 0 0 -0 -0 -0 -0 -0 0 -0 -0 -0 -0 -0 -0 -0 -0 -0 nan
nan -0 -0 -0 -0 0 -0 -1 0 0 0 -0 -1 0 1 -0 -0 -0 -0 -0 -0 -0 0 0 0 0 0 0 -0 0 0 -0 -0 -0 -0 -0 -0 -0 -0 -0 0 -0 0 nan
nan -0 -0 -0 0 0 -0 -0 0 0 -0 -1 -0 -0 1 -0 -0 -0 -0 -0 -0 -0 -0 -0 -0 -0 0 0 0 0 0 0 0 0 0 1 0 0 1 0 0 0 0 nan
nan 0 0 0 -0 0 0 0 -0 -0 -0 -0 -1 0 0 -0 -0 -0 -0 -0 -0 -1 -0 -0 -0 -0 0 0 0 -0 0 0 0 0 0 0 0 0 0 0 0 0 0 nan
nan 0 -0 -1 -0 0 -0 0 0 0 0 -0 -1 1 -0 0 0 0 0 -0 -0 -1 -0 0 0 0 0 0 0 0 0 -0 -0 -0 0 -0 -0 0 0 0 0 0 0 nan
nan 0 -0 -0 0 0 0 0 0 0 0 -0 0 0 -0 0 0 0 -0 -1 -1 -0 -0 0 0 -0 -0 0 -0 0 -0 -0 -0 -0 -0 -0 0 0 0 0 0 0 0 nan
nan 0 -0 0 0 -0 -0 0 0 1 0 1 -0 0 0 -0 -0 -0 -0 -0 -0 0 0 0 -0 -1 -0 -0 -0 -0 -0 -0 0 0 0 0 0 0 0 0 0 0 0 nan
nan 0 1 0 0 0 0 -0 -0 -0 0 0 -0 1 -0 -0 -0 0 1 0 1 1 -0 -0 -0 -0 -0 -0 -0 -0 -0 0 0 0 0 0 0 0 0 0 0 0 0 nan
nan 0 0 -0 -0 0 0 -0 -0 0 0 -0 -0 -2 -0 0 1 0 -1 -0 1 -1 -1 0 0 -0 -0 -0 -0 -0 -0 0 0 0 0 0 0 0 0 0 0 0 0 nan
nan 0 -0 -0 0 0 -0 -2 -1 -1 -0 -0 -0 -0 -0 -1 -0 0 -0 -1 1 -1 -1 -0 1 0 -0 -0 0 0 0 0 0 0 0 0 0 1 0 0 0 0 0 nan
nan -0 -0 -0 0 -1 -2 0 1 0 0 1 -0 -0 0 1 1 0 -2 -2 -1 0 0 -0 -0 -0 0 -0 0 0 0 0 0 0 0 1 0 0 0 0 1 1 0 nan
nan 0 -0 -0 -0 -1 0 0 1 0 0 -0 -0 1 0 -1 -1 -0 0 1 -0 -1 -2 -2 -0 0 0 -0 0 0 0 0 0 0 0 0 0 0 0 0 0 0 0 nan
nan -0 -0 0 -0 -0 -0 -1 -1 -0 1 -0 -0 -0 -0 -0 0 0 -1 -1 -1 -1 -1 -1 -0 -0 -1 -0 -0 0 0 0 0 0 1 1 1 0 0 0 0 0 1 nan
nan 0 -0 -0 -0 -0 -0 -0 -0 1 -0 -0 -1 -0 -0 -0 -0 -1 -1 -1 -1 -1 -1 -1 -1 -2 -0 0 0 0 0 0 1 1 1 1 1 1 1 1 0 1 0 nan
nan 0 -0 -0 -0 0 -0 -0 -0 0 0 -0 -1 -1 -0 -0 -0 -0 -1 -1 -1 -1 -1 -1 -1 -1 0 1 0 0 0 1 2 2 1 1 1 1 1 0 0 1 1 nan
nan -0 -0 -0 -0 0 0 0 -0 -0 0 0 -0 -0 0 -0 -1 -1 -0 -1 -1 -1 -1 -1 -1 -0 1 1 0 1 2 2 1 1 1 1 0 1 1 1 2 1 1 nan
nan 0 0 -0 -0 0 0 -0 -0 0 0 -0 -0 0 0 -0 -1 -0 -1 -1 -1 -1 -1 -1 -0 -0 0 1 1 2 2 1 1 0 0 1 1 1 2 2 1 0 -0 nan
nan -0 0 -0 -0 -0 -0 -0 0 0 0 0 0 -0 -1 -0 -0 -0 -1 -1 -1 -1 -1 -1 0 -0 -0 1 1 1 1 0 0 1 1 1 1 2 1 1 0 0 1 nan
nan nan nan nan nan nan nan nan nan nan nan nan nan nan nan nan nan nan nan nan nan nan nan nan nan nan nan nan nan nan nan nan nan nan nan nan nan nan nan nan nan nan nan nan
Wind_Speed
6 6 15 27 23 18 6 6 9 3 6 9 20 25 21 22 21 24 25 15 11 11 13 16 26 32 34 34 38 39 38 35 32 34 37 36 35 35 34 33 29 26 25 24
4 16 12 6 15 15 18 18 17 14 15 9 15 24 24 22 22 26 21 10 7 6 6 10 18 27 33 34 37 39 38 36 34 35 39 39 40 38 36 33 30 27 25 24
19 9 7 12 11 15 17 18 13 15 9 12 15 24 10 7 12 12 5 5 4 6 9 10 16 25 28 32 36 39 40 38 34 38 40 42 38 36 35 32 28 26 24 23
11 17 13 10 10 13 16 12 17 15 9 9 5 14 14 11 11 7 5 3 4 7 8 10 13 18 26 30 30 34 38 37 38 39 40 40 38 38 35 29 24 24 24 24
9 6 9 17 19 14 11 7 12 11 8 8 11 7 7 2 8 12 8 1 3 4 6 6 2 12 15 21 27 32 33 38 39 41 41 41 40 37 29 25 27 28 30 27
10 4 3 6 7 13 3 3 1 1 4 10 14 13 13 6 12 4 3 5 5 6 8 9 7 3 4 10 18 24 28 30 34 36 36 37 35 31 23 24 22 21 12 13
7 22 8 6 8 5 13 7 3 3 5 8 4 12 17 7 5 4 3 3 4 6 8 8 7 7 5 5 7 9 13 20 22 23 20 16 10 1 2 3 2 2 5 9
3 4 14 14 22 9 16 14 6 6 6 4 1 9 4 1 4 7 6 5 5 7 8 8 9 10 10 9 8 7 7 13 17 17 14 10 9 11 10 10 3 3 2 5
6 6 2 5 13 15 7 13 11 5 2 6 8 11 6 5 4 7 8 8 7 7 11 11 12 11 14 19 19 25 18 12 9 10 10 7 7 6 4 8 10 9 13 13
1 6 6 3 7 15 14 7 4 3 5 9 10 11 11 9 10 9 9 12 10 10 12 13 17 23 21 21 21 16 12 13 16 16 15 13 11 13 13 17 16 15 15 8
4 5 4 4 7 12 9 15 4 3 6 6 9 10 4 12 14 15 12 14 15 14 16 18 25 20 20 17 17 13 13 13 16 15 16 13 11 12 15 12 14 14 14 9
6 3 9 16 7 7 11 14 23 8 10 5 12 16 1 6 13 17 17 18 17 16 19 20 22 20 20 19 17 14 13 13 14 13 12 12 12 13 12 11 13 15 12 10
7 3 7 9 6 3 9 9 15 23 5 19 11 11 3 6 14 21 24 20 20 20 22 22 22 22 20 19 18 16 15 15 15 13 12 12 12 10 8 8 8 10 10 11
6 6 9 15 6 3 5 13 9 19 12 15 12 15 6 9 15 18 23 24 18 22 24 24 25 25 22 21 19 19 19 19 18 15 13 12 11 10 10 10 8 8 8 9
4 10 8 10 6 5 3 8 7 8 15 9 12 18 15 15 18 22 28 26 19 17 26 27 27 23 19 21 21 22 22 21 20 18 17 14 12 12 12 12 11 11 11 13
2 3 6 8 14 11 10 14 15 13 12 10 8 16 3 15 17 10 17 21 20 22 27 34 29 25 21 17 21 23 23 22 22 22 20 19 18 18 16 16 16 16 17 16
3 3 5 8 10 10 9 22 21 19 15 8 8 10 18 15 6 11 23 33 30 28 31 36 38 32 25 19 24 24 25 25 24 23 23 22 21 21 21 20 19 18 17 17
3 2 5 9 7 12 13 11 21 22 19 17 15 18 18 17 18 24 39 37 31 34 32 32 33 38 35 25 24 25 26 26 25 25 24 24 24 23 22 21 20 19 17 17
15 6 4 5 12 16 6 3 7 13 5 5 16 12 9 12 19 28 16 16 18 23 27 27 24 22 27 26 27 27 28 29 29 28 27 26 26 26 24 21 20 19 17 17
12 11 6 4 4 4 5 8 13 5 6 3 6 6 8 12 7 3 17 18 23 26 24 23 30 27 23 24 27 28 32 34 32 30 28 26 25 23 21 19 18 17 16 16
3 5 12 10 7 6 4 8 5 8 3 8 11 13 13 6 6 17 20 21 22 27 26 22 22 25 26 29 30 31 33 33 32 31 28 25 23 22 21 22 21 19 18 17
2 2 2 4 7 8 12 7 7 6 4 9 14 18 19 18 24 25 23 24 27 28 24 20 20 18 25 28 30 32 30 31 31 29 26 25 23 23 24 25 23 24 22 21
4 5 3 5 5 9 11 12 8 9 12 15 17 17 16 20 23 25 27 26 27 28 27 20 18 17 23 29 29 29 30 31 29 26 24 24 22 22 24 28 29 27 23 22
4 10 8 12 14 13 18 24 26 24 23 25 24 21 21 24 28 29 29 28 27 27 26 24 18 20 24 27 29 27 28 28 24 23 22 23 22 23 26 28 28 26 24 23
10 4 8 13 19 25 28 31 32 20 20 26 26 24 28 28 33 31 32 30 27 25 24 23 20 21 23 27 27 27 25 23 22 22 21 21 21 22 23 24 25 23 22 22
8 14 7 11 25 20 27 39 34 32 30 30 27 30 33 31 33 32 34 30 23 21 28 24 20 21 25 29 27 25 23 22 22 21 20 20 18 19 21 20 20 20 19 18
Wind_Direction
187 210 210 206 211 244 271 247 260 240 265 293 282 283 287 283 279 279 279 280 278 278 277 248 243 245 242 239 240 239 232 232 230 220 214 214 217 218 216 218 221 224 228 229
169 239 228 231 224 234 247 264 270 278 267 261 282 277 280 269 261 255 258 234 247 261 262 240 238 245 243 240 242 241 237 235 227 223 217 220 220 219 219 220 218 218 228 229
220 223 222 200 218 222 237 244 257 261 295 269 292 286 262 267 250 250 167 200 233 271 267 248 235 234 244 242 240 241 237 240 233 224 220 220 218 215 219 219 216 223 227 230
253 242 238 210 223 211 247 217 244 259 270 284 3 295 273 262 246 192 169 190 269 287 282 278 252 237 234 239 240 232 237 237 229 227 225 228 227 221 226 227 226 231 234 231
217 173 216 228 236 202 254 188 218 240 250 289 255 259 283 199 246 240 201 155 36 4 16 16 311 221 221 219 218 222 227 223 225 218 219 216 216 222 220 218 226 250 241 231
248 268 250 226 205 201 160 185 81 239 260 264 240 216 285 268 261 265 90 48 31 44 61 67 78 85 164 207 216 224 219 221 220 218 217 213 210 209 214 209 211 205 204 229
257 244 233 198 216 183 196 187 243 238 216 257 292 214 252 315 2 8 110 96 86 77 79 75 87 102 127 180 209 210 211 207 213 218 213 208 194 166 29 14 148 267 153 234
221 300 193 206 215 204 194 186 190 222 214 275 253 240 248 110 94 92 99 113 107 97 105 110 120 127 136 141 144 149 152 133 116 114 117 115 103 90 86 85 45 121 160 205
191 254 197 217 209 200 182 215 213 264 234 285 245 259 240 164 139 132 131 127 119 118 126 130 129 125 128 116 117 116 115 117 125 129 138 145 158 161 151 168 193 198 212 191
229 284 218 169 173 220 216 177 170 187 222 238 250 256 239 192 186 173 162 157 158 154 149 143 138 138 138 137 137 129 117 126 135 141 148 151 149 152 180 162 187 205 228 216
172 221 224 159 191 190 204 230 229 185 228 243 260 251 184 213 186 179 171 169 173 172 165 157 156 154 157 157 150 142 140 144 145 143 156 165 170 180 205 206 219 225 239 244
214 218 256 247 250 203 216 227 207 210 209 224 254 261 142 226 185 176 175 177 185 184 181 174 174 177 178 178 176 167 160 162 158 172 182 187 195 208 218 227 231 232 241 245
175 224 262 263 232 204 224 218 218 224 244 222 228 251 90 174 177 185 179 192 193 198 195 196 193 197 201 201 198 201 193 175 175 177 183 191 206 217 219 223 232 243 245 239
181 190 228 250 273 337 275 236 224 211 220 235 224 248 212 191 184 189 203 204 202 213 204 208 211 211 213 215 212 210 208 202 204 203 208 204 202 200 202 209 215 222 223 226
232 225 206 244 231 237 238 284 289 238 241 243 249 226 236 201 196 197 203 217 228 219 220 220 217 211 209 216 210 207 208 206 206 202 201 200 199 201 197 194 197 202 206 211
222 243 188 242 237 215 230 236 255 259 270 268 269 282 274 237 214 192 252 254 252 240 242 229 226 221 219 228 218 207 199 197 197 199 196 199 201 201 198 192 191 197 204 215
202 219 201 251 249 229 235 225 223 233 220 213 229 237 281 296 267 214 258 277 263 250 246 241 242 238 234 239 222 215 207 198 199 203 200 199 201 202 199 197 194 203 203 213
257 257 239 254 218 230 249 245 220 220 229 212 215 230 237 244 271 246 258 264 266 262 262 259 258 251 239 239 224 219 212 209 203 207 208 206 203 205 205 207 208 210 216 224
215 200 278 253 228 250 259 185 188 192 232 345 244 267 319 318 249 249 253 259 284 287 284 271 262 243 234 223 221 219 214 212 212 210 212 210 210 209 208 210 216 218 228 229
217 246 234 237 284 293 12 351 346 282 210 24 42 16 347 347 213 200 332 315 307 301 284 268 256 250 235 224 220 218 213 213 215 215 218 215 213 215 216 214 226 227 226 234
199 222 233 247 251 259 360 314 316 211 50 2 351 338 323 328 289 310 325 321 322 321 300 274 262 238 239 228 220 216 213 214 216 217 215 215 217 219 218 219 223 231 231 235
270 320 296 286 234 229 8 354 359 288 243 291 300 298 288 292 304 316 313 317 324 327 320 284 275 242 229 223 215 212 211 211 212 212 214 217 218 219 219 220 222 230 230 234
253 222 270 240 271 291 291 253 289 275 268 249 254 270 272 277 297 308 308 310 317 324 329 308 273 249 227 215 210 210 211 205 203 203 206 216 215 219 221 221 221 222 224 230
254 253 258 282 269 290 293 290 282 280 274 275 271 274 278 277 301 304 302 299 305 316 323 320 283 252 227 212 210 208 203 199 198 204 206 216 217 221 221 221 223 225 233 233
246 313 265 272 278 282 277 279 283 290 283 277 278 270 282 275 287 290 294 291 296 306 312 314 284 251 229 212 201 195 197 197 197 202 209 218 220 222 222 223 228 229 237 243
241 250 242 265 271 275 276 283 288 287 284 280 275 274 273 270 275 282 286 281 282 285 294 300 290 247 225 209 195 192 195 201 204 202 204 209 211 212 212 216 222 227 231 237
Height
1493 1495 1486 1474 1477 1475 1484 1490 1486 1487 1482 1480 1470 1461 1459 1459 1458 1454 1451 1449 1447 1447 1446 1447 1450 1453 1456 1458 1461 1463 1466 1471 1477 1482 1486 1491 1493 1498 1502 1504 1507 1510 1512 1514
1491 1481 1479 1482 1485 1486 1485 1486 1484 1481 1479 1481 1470 1454 1452 1449 1444 1442 1443 1444 1443 1444 1443 1443 1446 1448 1450 1454 1455 1457 1461 1466 1472 1475 1480 1484 1486 1490 1496 1499 1501 1505 1508 1511
1471 1470 1472 1476 1481 1485 1484 1485 1484 1484 1479 1476 1468 1439 1436 1436 1437 1438 1439 1441 1442 1442 1440 1440 1441 1442 1446 1449 1451 1454 1456 1461 1467 1470 1474 1477 1484 1489 1491 1494 1498 1501 1504 1507
1471 1470 1472 1475 1475 1480 1479 1479 1480 1481 1486 1479 1471 1449 1434 1431 1429 1434 1438 1438 1439 1439 1439 1437 1437 1438 1439 1443 1448 1451 1453 1458 1463 1464 1469 1473 1477 1480 1483 1487 1492 1497 1499 1502
1461 1464 1466 1467 1467 1473 1470 1475 1478 1479 1480 1478 1471 1477 1416 1431 1430 1427 1433 1438 1438 1436 1436 1435 1433 1432 1434 1438 1442 1444 1448 1451 1455 1460 1465 1471 1474 1477 1481 1483 1485 1487 1491 1492
1461 1462 1463 1461 1464 1467 1470 1475 1479 1481 1481 1476 1457 1463 1414 1422 1424 1426 1434 1436 1438 1439 1436 1435 1434 1435 1435 1438 1439 1442 1446 1450 1453 1456 1462 1466 1470 1476 1480 1480 1482 1479 1488 1498
1459 1455 1456 1460 1463 1466 1466 1474 1487 1486 1486 1471 1452 1455 1424 1428 1433 1434 1435 1437 1437 1437 1436 1437 1437 1437 1437 1439 1441 1443 1447 1449 1452 1457 1462 1466 1470 1476 1481 1485 1486 1491 1487 1496
1457 1447 1449 1450 1452 1455 1460 1463 1469 1475 1470 1459 1458 1445 1420 1434 1434 1435 1437 1439 1439 1437 1438 1439 1438 1438 1439 1439 1441 1443 1446 1451 1454 1459 1462 1467 1469 1472 1475 1477 1485 1487 1490 1493
1455 1453 1443 1444 1446 1453 1460 1461 1453 1461 1467 1467 1441 1427 1428 1434 1434 1434 1435 1437 1439 1440 1440 1440 1441 1441 1441 1441 1442 1445 1448 1452 1455 1457 1459 1462 1465 1469 1471 1474 1482 1481 1488 1479
1446 1449 1439 1439 1444 1448 1447 1448 1463 1467 1468 1463 1431 1434 1415 1431 1430 1432 1434 1435 1437 1439 1440 1440 1442 1443 1446 1448 1449 1450 1451 1452 1455 1458 1460 1463 1462 1464 1474 1464 1474 1477 1492 1480
1444 1449 1442 1440 1440 1440 1449 1449 1451 1451 1453 1444 1436 1416 1416 1416 1420 1427 1431 1433 1434 1436 1437 1437 1439 1441 1445 1448 1449 1451 1453 1455 1456 1457 1460 1464 1467 1467 1471 1468 1475 1481 1487 1480
1443 1446 1441 1435 1432 1432 1432 1429 1435 1442 1444 1450 1435 1415 1416 1417 1419 1425 1429 1429 1430 1432 1434 1434 1436 1439 1443 1445 1446 1448 1450 1453 1456 1459 1459 1462 1464 1465 1467 1469 1473 1480 1479 1480
1441 1447 1442 1428 1433 1433 1430 1428 1425 1424 1431 1428 1432 1412 1414 1417 1419 1422 1422 1422 1424 1427 1430 1432 1434 1436 1439 1441 1441 1445 1447 1449 1452 1455 1458 1460 1461 1464 1466 1469 1473 1476 1478 1480
1438 1439 1432 1426 1426 1439 1437 1426 1425 1421 1427 1417 1423 1411 1416 1417 1417 1419 1418 1416 1418 1422 1426 1429 1430 1431 1433 1435 1437 1440 1444 1445 1449 1450 1455 1457 1459 1460 1462 1465 1468 1473 1476 1479
1440 1434 1436 1431 1432 1435 1437 1439 1432 1425 1416 1423 1411 1414 1404 1410 1411 1410 1412 1413 1413 1417 1421 1422 1425 1427 1429 1431 1432 1435 1440 1442 1445 1447 1452 1456 1458 1461 1462 1463 1468 1472 1476 1478
1440 1430 1434 1431 1427 1431 1433 1433 1429 1430 1429 1430 1426 1421 1412 1410 1411 1412 1412 1412 1415 1415 1414 1415 1419 1421 1424 1425 1427 1428 1431 1437 1441 1443 1445 1449 1454 1459 1463 1463 1465 1469 1473 1477
1436 1434 1431 1417 1419 1425 1424 1409 1411 1404 1408 1419 1419 1417 1417 1415 1414 1411 1413 1411 1408 1409 1408 1411 1412 1415 1416 1419 1422 1424 1426 1427 1434 1441 1440 1442 1449 1455 1458 1461 1462 1466 1469 1474
1438 1434 1429 1416 1419 1408 1383 1384 1388 1392 1392 1395 1402 1403 1402 1405 1410 1411 1407 1405 1402 1399 1400 1402 1403 1406 1409 1412 1414 1417 1420 1426 1423 1433 1435 1438 1443 1449 1454 1457 1459 1462 1465 1470
1433 1432 1429 1411 1399 1384 1385 1388 1387 1387 1392 1401 1395 1399 1402 1400 1401 1396 1399 1400 1399 1398 1394 1397 1397 1398 1401 1403 1407 1410 1413 1417 1421 1422 1426 1431 1437 1442 1445 1452 1458 1460 1462 1466
1432 1431 1426 1419 1413 1391 1400 1396 1395 1390 1394 1405 1406 1405 1402 1395 1393 1392 1393 1392 1390 1390 1388 1387 1389 1391 1392 1395 1399 1402 1403 1407 1412 1415 1421 1427 1432 1436 1441 1446 1453 1455 1458 1461
1427 1427 1422 1416 1412 1404 1402 1400 1395 1394 1403 1409 1407 1405 1405 1399 1401 1397 1393 1389 1387 1382 1378 1379 1380 1376 1382 1387 1390 1394 1395 1399 1405 1409 1416 1422 1428 1431 1437 1442 1447 1452 1453 1456
1422 1424 1419 1413 1404 1401 1408 1403 1407 1410 1409 1411 1407 1406 1401 1397 1394 1392 1391 1385 1381 1377 1371 1369 1371 1366 1372 1379 1382 1387 1388 1393 1398 1404 1410 1418 1421 1425 1430 1436 1441 1445 1446 1449
1423 1417 1416 1415 1404 1402 1403 1401 1400 1402 1401 1398 1396 1394 1393 1390 1388 1387 1385 1380 1376 1374 1368 1364 1364 1363 1367 1373 1376 1377 1382 1388 1391 1398 1403 1413 1414 1419 1424 1429 1433 1438 1439 1442
1415 1414 1412 1412 1401 1400 1399 1397 1396 1394 1392 1389 1388 1386 1384 1381 1379 1376 1375 1375 1372 1369 1365 1362 1361 1363 1365 1366 1370 1374 1379 1385 1388 1393 1397 1406 1407 1412 1418 1422 1427 1431 1433 1434
1408 1413 1409 1407 1401 1396 1393 1389 1384 1385 1384 1382 1380 1379 1377 1375 1372 1370 1367 1367 1365 1364 1363 1362 1358 1359 1360 1363 1367 1371 1378 1383 1384 1390 1392 1400 1402 1407 1413 1417 1422 1425 1428 1431
1404 1402 1406 1397 1390 1392 1385 1378 1381 1377 1374 1374 1372 1371 1368 1367 1364 1363 1360 1360 1358 1359 1360 1359 1356 1354 1355 1360 1364 1368 1375 1379 1382 1384 1389 1394 1398 1404 1409 1413 1417 1420 1424 1426